| time (UTC) | temp F | wind direction | speed MPH | gust MPH | rain 1hr in | rain 24hr in | rain mn in | humidity % | barometer mb |
| 20260905032404 | 74 | 313 | 1.0 | 5.0 | 0.00 | 0.01 | 0.01 | 66 | 1009.5 |
| 20260905031903 | 74 | 333 | 0.0 | 3.0 | 0.00 | 0.01 | 0.01 | 65 | 1009.5 |
| 20260905031403 | 74 | 294 | 0.0 | 8.0 | 0.00 | 0.01 | 0.01 | 65 | 1009.5 |
| 20260905030404 | 74 | 330 | 2.0 | 8.0 | 0.00 | 0.01 | 0.01 | 64 | 1009.4 |
| 20260905025904 | 74 | 306 | 2.0 | 7.0 | 0.00 | 0.01 | 0.01 | 65 | 1009.4 |
| 20260905025404 | 74 | 307 | 0.0 | 5.0 | 0.00 | 0.01 | 0.01 | 65 | 1009.4 |
| 20260905024904 | 74 | 298 | 3.0 | 10.0 | 0.00 | 0.01 | 0.01 | 65 | 1009.3 |
| 20260905023903 | 74 | 345 | 1.0 | 6.0 | 0.00 | 0.01 | 0.01 | 65 | 1009.4 |
| 20260905023404 | 75 | 307 | 0.0 | 6.0 | 0.00 | 0.01 | 0.01 | 65 | 1009.4 |
| 20260905022404 | 74 | 279 | 2.0 | 7.0 | 0.00 | 0.01 | 0.01 | 65 | 1009.3 |
| 20260905021904 | 75 | 280 | 1.0 | 9.0 | 0.00 | 0.01 | 0.01 | 65 | 1009.3 |
| 20260905021404 | 74 | 298 | 0.0 | 3.0 | 0.00 | 0.01 | 0.01 | 66 | 1009.4 |
| 20260905020904 | 75 | 297 | 1.0 | 5.0 | 0.00 | 0.01 | 0.01 | 65 | 1009.4 |
| 20260905020404 | 75 | 281 | 0.0 | 7.0 | 0.00 | 0.01 | 0.01 | 65 | 1009.5 |
| 20260905015904 | 74 | 316 | 3.0 | 9.0 | 0.00 | 0.01 | 0.01 | 65 | 1009.5 |
| 20260905015404 | 75 | 302 | 0.0 | 3.0 | 0.00 | 0.01 | 0.01 | 65 | 1009.5 |
| 20260905014905 | 75 | 290 | 0.0 | 6.0 | 0.00 | 0.01 | 0.01 | 65 | 1009.4 |
| 20260905014404 | 74 | 293 | 0.0 | 1.0 | 0.00 | 0.01 | 0.01 | 65 | 1009.4 |
| 20260905013904 | 75 | 304 | 0.0 | 1.0 | 0.00 | 0.01 | 0.01 | 65 | 1009.5 |
| 20260905012904 | 75 | 337 | 0.0 | 1.0 | 0.00 | 0.01 | 0.01 | 65 | 1009.5 |
| 20260905012404 | 75 | 309 | 0.0 | 1.0 | 0.00 | 0.01 | 0.01 | 65 | 1009.5 |
| 20260905011904 | 75 | 309 | 0.0 | 1.0 | 0.00 | 0.01 | 0.01 | 65 | 1009.5 |
| 20260905011404 | 75 | 316 | 1.0 | 6.0 | 0.00 | 0.01 | 0.01 | 64 | 1009.5 |
| 20260905010904 | 76 | 300 | 0.0 | 1.0 | 0.00 | 0.01 | 0.01 | 64 | 1009.5 |
| 20260905010404 | 76 | 308 | 1.0 | 5.0 | 0.00 | 0.01 | 0.01 | 64 | 1009.4 |
| 20260905005905 | 76 | 317 | 1.0 | 3.0 | 0.00 | 0.01 | 0.01 | 63 | 1009.4 |
| 20260905005404 | 76 | 310 | 0.0 | 9.0 | 0.00 | 0.01 | 0.01 | 63 | 1009.3 |
| 20260905004904 | 76 | 315 | 1.0 | 7.0 | 0.00 | 0.01 | 0.01 | 62 | 1009.4 |
| 20260905004404 | 76 | 301 | 1.0 | 6.0 | 0.00 | 0.01 | 0.01 | 63 | 1009.4 |
| 20260905003904 | 76 | 303 | 0.0 | 1.0 | 0.00 | 0.01 | 0.01 | 62 | 1009.4 |
| 20260905003405 | 76 | 307 | 1.0 | 5.0 | 0.00 | 0.01 | 0.01 | 61 | 1009.4 |
| 20260905002404 | 77 | 306 | 0.0 | 1.0 | 0.00 | 0.01 | 0.01 | 61 | 1009.3 |
| 20260905001905 | 77 | 289 | 0.0 | 1.0 | 0.00 | 0.01 | 0.01 | 60 | 1009.2 |
| 20260905001404 | 77 | 293 | 0.0 | 5.0 | 0.00 | 0.01 | 0.01 | 60 | 1009.3 |
| 20260905000905 | 77 | 300 | 0.0 | 1.0 | 0.00 | 0.01 | 0.01 | 59 | 1009.2 |
| 20260904235404 | 77 | 323 | 0.0 | 3.0 | 0.00 | 0.01 | 0.01 | 60 | 1009.1 |
| 20260904234405 | 78 | 321 | 0.0 | 1.0 | 0.00 | 0.01 | 0.01 | 58 | 1009.1 |
| 20260904232904 | 78 | 306 | 0.0 | 1.0 | 0.00 | 0.01 | 0.01 | 58 | 1009.2 |
| 20260904232405 | 78 | 301 | 0.0 | 2.0 | 0.00 | 0.01 | 0.01 | 57 | 1009.1 |
| 20260904231905 | 79 | 303 | 1.0 | 10.0 | 0.00 | 0.01 | 0.01 | 56 | 1009.0 |
| 20260904231405 | 79 | 294 | 2.0 | 10.0 | 0.00 | 0.01 | 0.01 | 56 | 1009.0 |
| 20260904230405 | 79 | 292 | 1.0 | 10.0 | 0.00 | 0.01 | 0.01 | 55 | 1009.1 |
| 20260904225905 | 79 | 317 | 1.0 | 8.0 | 0.00 | 0.01 | 0.01 | 55 | 1009.0 |
| 20260904225405 | 79 | 300 | 0.0 | 2.0 | 0.00 | 0.01 | 0.01 | 55 | 1009.1 |
| 20260904224905 | 79 | 307 | 1.0 | 13.0 | 0.00 | 0.01 | 0.01 | 55 | 1009.0 |
| 20260904224405 | 80 | 309 | 5.0 | 12.0 | 0.00 | 0.01 | 0.01 | 55 | 1009.1 |
| 20260904223905 | 80 | 317 | 2.0 | 12.0 | 0.00 | 0.01 | 0.01 | 56 | 1009.1 |
| 20260904223405 | 80 | 296 | 1.0 | 12.0 | 0.00 | 0.01 | 0.01 | 54 | 1009.1 |
| 20260904222904 | 80 | 296 | 2.0 | 12.0 | 0.00 | 0.01 | 0.01 | 55 | 1009.2 |
| 20260904221905 | 81 | 277 | 1.0 | 12.0 | 0.00 | 0.01 | 0.01 | 54 | 1009.2 |
| 20260904221405 | 81 | 303 | 2.0 | 12.0 | 0.00 | 0.01 | 0.01 | 54 | 1009.1 |
| 20260904220905 | 80 | 309 | 2.0 | 12.0 | 0.00 | 0.01 | 0.01 | 54 | 1009.0 |
| 20260904220404 | 81 | 293 | 2.0 | 12.0 | 0.00 | 0.01 | 0.01 | 54 | 1008.9 |
| 20260904215905 | 81 | 330 | 1.0 | 8.0 | 0.00 | 0.01 | 0.01 | 55 | 1009.0 |
| 20260904215405 | 82 | 310 | 2.0 | 12.0 | 0.00 | 0.01 | 0.01 | 54 | 1009.0 |
| 20260904214905 | 82 | 314 | 4.0 | 12.0 | 0.00 | 0.01 | 0.01 | 53 | 1009.0 |
| 20260904213405 | 82 | 298 | 1.0 | 12.0 | 0.00 | 0.01 | 0.01 | 52 | 1008.7 |
| 20260904212905 | 82 | 266 | 2.0 | 10.0 | 0.00 | 0.01 | 0.01 | 52 | 1008.8 |
| 20260904211903 | 83 | 303 | 5.0 | 17.0 | 0.00 | 0.01 | 0.01 | 53 | 1008.6 |
| 20260904211404 | 83 | 290 | 2.0 | 12.0 | 0.00 | 0.01 | 0.01 | 54 | 1008.6 |
| 20260904210903 | 83 | 296 | 4.0 | 13.0 | 0.00 | 0.01 | 0.01 | 52 | 1008.6 |
| 20260904210404 | 83 | 309 | 2.0 | 12.0 | 0.00 | 0.01 | 0.01 | 51 | 1008.7 |
| 20260904205904 | 84 | 293 | 2.0 | 12.0 | 0.00 | 0.01 | 0.01 | 52 | 1008.9 |
| 20260904205404 | 84 | 278 | 1.0 | 3.0 | 0.00 | 0.01 | 0.01 | 52 | 1008.9 |
| 20260904204905 | 83 | 308 | 5.0 | 16.0 | 0.00 | 0.01 | 0.01 | 51 | 1008.9 |
| 20260904204404 | 83 | 259 | 5.0 | 14.0 | 0.00 | 0.01 | 0.01 | 52 | 1009.0 |
| 20260904203404 | 84 | 316 | 7.0 | 15.0 | 0.00 | 0.01 | 0.01 | 52 | 1009.1 |
| 20260904202904 | 84 | 286 | 3.0 | 12.0 | 0.00 | 0.01 | 0.01 | 51 | 1009.1 |
| 20260904202404 | 84 | 253 | 12.0 | 18.0 | 0.00 | 0.01 | 0.01 | 50 | 1009.0 |
| 20260904201905 | 84 | 253 | 9.0 | 16.0 | 0.00 | 0.01 | 0.01 | 50 | 1009.2 |
| 20260904201404 | 84 | 263 | 9.0 | 16.0 | 0.00 | 0.01 | 0.01 | 50 | 1009.2 |
| 20260904200903 | 83 | 300 | 2.0 | 10.0 | 0.00 | 0.01 | 0.01 | 52 | 1009.2 |
| 20260904200404 | 83 | 286 | 3.0 | 12.0 | 0.00 | 0.01 | 0.01 | 51 | 1009.3 |
| 20260904195905 | 83 | 301 | 1.0 | 12.0 | 0.00 | 0.01 | 0.01 | 52 | 1009.3 |
| 20260904195404 | 84 | 336 | 3.0 | 12.0 | 0.00 | 0.01 | 0.01 | 51 | 1009.3 |
| 20260904194905 | 84 | 303 | 5.0 | 14.0 | 0.00 | 0.01 | 0.01 | 51 | 1009.3 |
| 20260904194404 | 85 | 252 | 4.0 | 12.0 | 0.00 | 0.01 | 0.01 | 49 | 1009.4 |
| 20260904193904 | 85 | 274 | 5.0 | 13.0 | 0.00 | 0.01 | 0.01 | 50 | 1009.4 |
| 20260904193404 | 85 | 298 | 0.0 | 3.0 | 0.00 | 0.01 | 0.01 | 50 | 1009.5 |
| 20260904192904 | 84 | 257 | 4.0 | 14.0 | 0.00 | 0.01 | 0.01 | 53 | 1009.5 |
| 20260904192404 | 84 | 277 | 1.0 | 10.0 | 0.00 | 0.01 | 0.01 | 52 | 1009.5 |
| 20260904191904 | 84 | 323 | 4.0 | 16.0 | 0.00 | 0.01 | 0.01 | 52 | 1009.6 |
| 20260904191404 | 85 | 325 | 3.0 | 12.0 | 0.00 | 0.01 | 0.01 | 53 | 1009.6 |
| 20260904190904 | 84 | 314 | 6.0 | 12.0 | 0.00 | 0.01 | 0.01 | 52 | 1009.7 |
| 20260904190404 | 84 | 275 | 7.0 | 12.0 | 0.00 | 0.01 | 0.01 | 52 | 1009.7 |
| 20260904185904 | 84 | 291 | 3.0 | 15.0 | 0.00 | 0.01 | 0.01 | 51 | 1009.8 |
| 20260904184404 | 81 | 298 | 2.0 | 12.0 | 0.00 | 0.01 | 0.01 | 57 | 1009.9 |
| 20260904183905 | 82 | 271 | 1.0 | 9.0 | 0.00 | 0.01 | 0.01 | 59 | 1009.9 |
| 20260904183404 | 82 | 288 | 3.0 | 12.0 | 0.00 | 0.01 | 0.01 | 55 | 1009.9 |
| 20260904182906 | 84 | 285 | 2.0 | 14.0 | 0.00 | 0.01 | 0.01 | 53 | 1009.9 |
| 20260904181905 | 84 | 272 | 5.0 | 13.0 | 0.00 | 0.01 | 0.01 | 54 | 1009.9 |
| 20260904181404 | 85 | 293 | 1.0 | 10.0 | 0.00 | 0.01 | 0.01 | 55 | 1009.9 |
| 20260904180905 | 84 | 324 | 1.0 | 13.0 | 0.00 | 0.01 | 0.01 | 57 | 1009.9 |
| 20260904180405 | 82 | 269 | 3.0 | 14.0 | 0.00 | 0.01 | 0.01 | 59 | 1009.8 |
| 20260904175906 | 81 | 296 | 2.0 | 8.0 | 0.00 | 0.01 | 0.01 | 56 | 1009.8 |
| 20260904175404 | 82 | 306 | 4.0 | 12.0 | 0.00 | 0.01 | 0.01 | 55 | 1009.7 |
| 20260904174904 | 84 | 294 | 5.0 | 14.0 | 0.00 | 0.01 | 0.01 | 51 | 1009.8 |
| 20260904173905 | 84 | 291 | 1.0 | 6.0 | 0.00 | 0.01 | 0.01 | 54 | 1009.8 |
| 20260904172905 | 84 | 297 | 3.0 | 16.0 | 0.00 | 0.01 | 0.01 | 54 | 1009.8 |
| 20260904172404 | 84 | 293 | 5.0 | 16.0 | 0.00 | 0.01 | 0.01 | 57 | 1009.7 |
| 20260904171904 | 84 | 298 | 5.0 | 12.0 | 0.00 | 0.01 | 0.01 | 57 | 1009.7 |
| 20260904171405 | 84 | 280 | 4.0 | 12.0 | 0.00 | 0.01 | 0.01 | 55 | 1009.8 |
| 20260904170905 | 83 | 310 | 5.0 | 13.0 | 0.00 | 0.01 | 0.01 | 54 | 1009.8 |
| 20260904170404 | 84 | 310 | 4.0 | 16.0 | 0.00 | 0.01 | 0.01 | 57 | 1009.9 |
| 20260904165904 | 84 | 305 | 5.0 | 17.0 | 0.00 | 0.01 | 0.01 | 59 | 1009.8 |
| 20260904165404 | 84 | 320 | 3.0 | 14.0 | 0.00 | 0.01 | 0.01 | 56 | 1009.9 |
| 20260904164905 | 84 | 346 | 3.0 | 16.0 | 0.00 | 0.01 | 0.01 | 56 | 1009.8 |
| 20260904164405 | 83 | 280 | 7.0 | 13.0 | 0.00 | 0.01 | 0.01 | 57 | 1009.8 |
| 20260904163905 | 83 | 303 | 6.0 | 18.0 | 0.00 | 0.01 | 0.01 | 56 | 1009.8 |
| 20260904163405 | 83 | 344 | 3.0 | 15.0 | 0.00 | 0.01 | 0.01 | 57 | 1009.7 |
| 20260904162905 | 83 | 318 | 7.0 | 15.0 | 0.00 | 0.01 | 0.01 | 57 | 1009.9 |
| 20260904162405 | 83 | 304 | 1.0 | 24.0 | 0.00 | 0.01 | 0.01 | 61 | 1009.9 |
| 20260904161906 | 82 | 302 | 3.0 | 13.0 | 0.00 | 0.01 | 0.01 | 61 | 1009.8 |
| 20260904161405 | 82 | 300 | 2.0 | 12.0 | 0.00 | 0.01 | 0.01 | 61 | 1010.0 |
| 20260904160905 | 82 | 319 | 5.0 | 14.0 | 0.00 | 0.01 | 0.01 | 60 | 1010.1 |
| 20260904155905 | 83 | 303 | 1.0 | 12.0 | 0.00 | 0.01 | 0.01 | 59 | 1010.2 |
| 20260904154905 | 82 | 313 | 6.0 | 15.0 | 0.00 | 0.01 | 0.01 | 60 | 1010.0 |
| 20260904154406 | 82 | 304 | 5.0 | 15.0 | 0.00 | 0.01 | 0.01 | 59 | 1010.1 |
| 20260904153904 | 82 | 274 | 3.0 | 12.0 | 0.00 | 0.01 | 0.01 | 62 | 1010.2 |
| 20260904153405 | 82 | 301 | 3.0 | 12.0 | 0.00 | 0.01 | 0.01 | 61 | 1010.2 |
| 20260904152905 | 82 | 299 | 2.0 | 12.0 | 0.00 | 0.01 | 0.01 | 61 | 1010.3 |
| 20260904151903 | 82 | 307 | 5.0 | 13.0 | 0.00 | 0.01 | 0.01 | 60 | 1010.4 |
| 20260904151403 | 82 | 286 | 7.0 | 14.0 | 0.00 | 0.01 | 0.01 | 60 | 1010.4 |
| 20260904150904 | 81 | 340 | 1.0 | 10.0 | 0.00 | 0.01 | 0.01 | 64 | 1010.4 |
| 20260904145904 | 81 | 277 | 3.0 | 12.0 | 0.00 | 0.01 | 0.01 | 62 | 1010.4 |
| 20260904144904 | 80 | 328 | 4.0 | 12.0 | 0.00 | 0.01 | 0.01 | 63 | 1010.3 |
| 20260904144403 | 80 | 312 | 1.0 | 13.0 | 0.00 | 0.01 | 0.01 | 64 | 1010.2 |
| 20260904143904 | 80 | 336 | 2.0 | 12.0 | 0.00 | 0.01 | 0.01 | 66 | 1010.2 |
| 20260904143405 | 79 | 287 | 2.0 | 14.0 | 0.00 | 0.01 | 0.01 | 65 | 1010.2 |
| 20260904142404 | 79 | 303 | 2.0 | 12.0 | 0.00 | 0.01 | 0.01 | 66 | 1010.3 |
| 20260904141904 | 79 | 314 | 4.0 | 12.0 | 0.00 | 0.01 | 0.01 | 69 | 1010.3 |
| 20260904141404 | 79 | 309 | 2.0 | 10.0 | 0.00 | 0.01 | 0.01 | 70 | 1010.3 |
| 20260904140904 | 79 | 317 | 3.0 | 10.0 | 0.00 | 0.01 | 0.01 | 70 | 1010.3 |
| 20260904140405 | 78 | 319 | 0.0 | 6.0 | 0.00 | 0.01 | 0.01 | 73 | 1010.2 |
| 20260904135904 | 78 | 324 | 1.0 | 5.0 | 0.00 | 0.01 | 0.01 | 75 | 1010.2 |
| 20260904135404 | 78 | 68 | 0.0 | 2.0 | 0.00 | 0.01 | 0.01 | 74 | 1010.2 |
| 20260904134903 | 78 | 317 | 1.0 | 6.0 | 0.00 | 0.01 | 0.01 | 75 | 1010.1 |
| 20260904134404 | 78 | 316 | 0.0 | 8.0 | 0.00 | 0.01 | 0.01 | 75 | 1010.1 |
| 20260904133905 | 77 | 322 | 1.0 | 6.0 | 0.00 | 0.01 | 0.01 | 75 | 1010.1 |
| 20260904133404 | 77 | 303 | 5.0 | 10.0 | 0.00 | 0.01 | 0.01 | 75 | 1010.1 |
| 20260904132904 | 77 | 285 | 1.0 | 6.0 | 0.00 | 0.01 | 0.01 | 76 | 1010.0 |
| 20260904131404 | 76 | 320 | 1.0 | 9.0 | 0.00 | 0.01 | 0.01 | 78 | 1010.1 |
| 20260904130404 | 76 | 308 | 1.0 | 7.0 | 0.00 | 0.01 | 0.01 | 78 | 1010.1 |
| 20260904125904 | 76 | 312 | 0.0 | 3.0 | 0.00 | 0.01 | 0.01 | 79 | 1010.1 |
| 20260904125404 | 76 | 312 | 1.0 | 12.0 | 0.00 | 0.01 | 0.01 | 80 | 1010.0 |
| 20260904124404 | 76 | 341 | 0.0 | 5.0 | 0.00 | 0.01 | 0.01 | 80 | 1010.1 |
| 20260904123904 | 75 | 338 | 0.0 | 5.0 | 0.00 | 0.01 | 0.01 | 82 | 1010.1 |
| 20260904123404 | 75 | 331 | 1.0 | 9.0 | 0.00 | 0.01 | 0.01 | 82 | 1010.2 |
| 20260904122905 | 75 | 319 | 3.0 | 12.0 | 0.00 | 0.01 | 0.01 | 82 | 1010.1 |
| 20260904121904 | 75 | 310 | 2.0 | 5.0 | 0.00 | 0.01 | 0.01 | 84 | 1010.0 |
| 20260904120404 | 75 | 333 | 0.0 | 2.0 | 0.00 | 0.01 | 0.01 | 85 | 1009.9 |
| 20260904115904 | 75 | 303 | 0.0 | 3.0 | 0.00 | 0.01 | 0.01 | 86 | 1009.9 |
| 20260904115405 | 75 | 308 | 1.0 | 5.0 | 0.00 | 0.01 | 0.01 | 87 | 1009.9 |
| 20260904114905 | 75 | 346 | 0.0 | 0.0 | 0.00 | 0.01 | 0.01 | 87 | 1010.0 |
| 20260904114404 | 74 | 306 | 0.0 | 0.0 | 0.00 | 0.01 | 0.01 | 89 | 1009.9 |
| 20260904113904 | 74 | 306 | 0.0 | 0.0 | 0.00 | 0.01 | 0.01 | 90 | 1009.9 |
| 20260904113404 | 74 | 307 | 0.0 | 0.0 | 0.00 | 0.01 | 0.01 | 89 | 1009.9 |
| 20260904112904 | 73 | 297 | 0.0 | 1.0 | 0.00 | 0.01 | 0.01 | 91 | 1009.7 |
| 20260904111905 | 72 | 293 | 0.0 | 1.0 | 0.00 | 0.01 | 0.01 | 92 | 1009.6 |
| 20260904111406 | 72 | 293 | 0.0 | 0.0 | 0.00 | 0.01 | 0.01 | 92 | 1009.6 |
| 20260904110904 | 72 | 285 | 0.0 | 0.0 | 0.00 | 0.01 | 0.01 | 92 | 1009.6 |
| 20260904110405 | 72 | 311 | 0.0 | 0.0 | 0.00 | 0.01 | 0.01 | 92 | 1009.7 |
| 20260904105405 | 72 | 294 | 0.0 | 0.0 | 0.00 | 0.01 | 0.01 | 93 | 1009.6 |
| 20260904104904 | 72 | 294 | 0.0 | 0.0 | 0.00 | 0.01 | 0.01 | 92 | 1009.6 |
| 20260904104405 | 72 | 294 | 0.0 | 0.0 | 0.00 | 0.01 | 0.01 | 92 | 1009.5 |
| 20260904103905 | 72 | 294 | 0.0 | 0.0 | 0.00 | 0.01 | 0.01 | 92 | 1009.6 |
| 20260904103405 | 72 | 294 | 0.0 | 0.0 | 0.00 | 0.01 | 0.01 | 92 | 1009.4 |
| 20260904102905 | 72 | 294 | 0.0 | 0.0 | 0.00 | 0.01 | 0.01 | 92 | 1009.4 |
| 20260904101904 | 72 | 294 | 0.0 | 0.0 | 0.00 | 0.01 | 0.01 | 92 | 1009.3 |
| 20260904101405 | 72 | 294 | 0.0 | 0.0 | 0.00 | 0.01 | 0.01 | 91 | 1009.2 |
| 20260904100905 | 72 | 298 | 0.0 | 0.0 | 0.00 | 0.01 | 0.01 | 92 | 1009.2 |
| 20260904100404 | 72 | 294 | 0.0 | 0.0 | 0.00 | 0.01 | 0.01 | 92 | 1009.2 |
| 20260904095905 | 72 | 297 | 0.0 | 0.0 | 0.00 | 0.01 | 0.01 | 92 | 1009.2 |
| 20260904094905 | 72 | 291 | 0.0 | 0.0 | 0.00 | 0.01 | 0.01 | 91 | 1009.0 |
| 20260904093905 | 72 | 291 | 0.0 | 0.0 | 0.00 | 0.01 | 0.01 | 91 | 1009.0 |
| 20260904093405 | 72 | 291 | 0.0 | 0.0 | 0.00 | 0.01 | 0.01 | 91 | 1008.9 |
| 20260904092403 | 73 | 291 | 0.0 | 0.0 | 0.00 | 0.01 | 0.01 | 91 | 1008.9 |
| 20260904091403 | 73 | 292 | 0.0 | 0.0 | 0.00 | 0.01 | 0.01 | 90 | 1008.8 |
| 20260904090903 | 73 | 292 | 0.0 | 0.0 | 0.00 | 0.01 | 0.01 | 90 | 1008.8 |
| 20260904090403 | 73 | 284 | 0.0 | 0.0 | 0.00 | 0.01 | 0.01 | 90 | 1008.8 |
| 20260904085904 | 73 | 284 | 0.0 | 0.0 | 0.00 | 0.01 | 0.01 | 90 | 1008.8 |
| 20260904085404 | 73 | 284 | 0.0 | 0.0 | 0.00 | 0.02 | 0.01 | 90 | 1009.1 |
| 20260904084903 | 73 | 279 | 0.0 | 0.0 | 0.00 | 0.02 | 0.01 | 90 | 1009.1 |
| 20260904084403 | 73 | 283 | 0.0 | 0.0 | 0.00 | 0.02 | 0.01 | 90 | 1009.1 |
| 20260904083904 | 73 | 283 | 0.0 | 0.0 | 0.00 | 0.02 | 0.01 | 89 | 1009.0 |
| 20260904083404 | 73 | 284 | 0.0 | 0.0 | 0.00 | 0.02 | 0.01 | 89 | 1009.1 |
| 20260904082903 | 73 | 283 | 0.0 | 0.0 | 0.00 | 0.02 | 0.01 | 89 | 1009.0 |
| 20260904082404 | 73 | 260 | 0.0 | 0.0 | 0.00 | 0.02 | 0.01 | 89 | 1009.0 |
| 20260904081903 | 73 | 277 | 0.0 | 0.0 | 0.00 | 0.03 | 0.01 | 89 | 1009.1 |
| 20260904081404 | 73 | 277 | 0.0 | 0.0 | 0.00 | 0.03 | 0.01 | 89 | 1009.1 |
| 20260904080403 | 73 | 275 | 0.0 | 0.0 | 0.00 | 0.03 | 0.01 | 89 | 1009.1 |
| 20260904075904 | 73 | 279 | 0.0 | 0.0 | 0.00 | 0.03 | 0.01 | 89 | 1009.0 |
| 20260904074904 | 73 | 281 | 0.0 | 0.0 | 0.00 | 0.03 | 0.01 | 89 | 1008.9 |
| 20260904074404 | 73 | 281 | 0.0 | 0.0 | 0.01 | 0.03 | 0.01 | 89 | 1008.7 |
| 20260904073904 | 72 | 281 | 0.0 | 0.0 | 0.01 | 0.03 | 0.01 | 89 | 1008.7 |
| 20260904073403 | 72 | 293 | 0.0 | 0.0 | 0.01 | 0.03 | 0.01 | 89 | 1008.6 |
| 20260904072904 | 72 | 294 | 0.0 | 0.0 | 0.01 | 0.04 | 0.01 | 88 | 1008.6 |
| 20260904072404 | 73 | 294 | 0.0 | 1.0 | 0.01 | 0.04 | 0.01 | 88 | 1008.5 |
| 20260904071904 | 73 | 326 | 0.0 | 1.0 | 0.01 | 0.04 | 0.01 | 88 | 1008.5 |
| 20260904070404 | 73 | 329 | 0.0 | 1.0 | 0.01 | 0.05 | 0.01 | 87 | 1008.2 |
| 20260904065905 | 73 | 300 | 0.0 | 1.0 | 0.01 | 0.05 | 0.01 | 86 | 1008.2 |
| 20260904065404 | 73 | 242 | 0.0 | 1.0 | 0.01 | 0.06 | 0.01 | 85 | 1007.9 |
| 20260904064904 | 74 | 205 | 1.0 | 6.0 | 0.01 | 0.06 | 0.01 | 84 | 1008.2 |
| 20260904064404 | 74 | 241 | 0.0 | 12.0 | 0.00 | 0.07 | 0.00 | 83 | 1008.7 |
| 20260904063904 | 75 | 250 | 7.0 | 16.0 | 0.00 | 0.08 | 0.00 | 82 | 1009.3 |
| 20260904063405 | 76 | 246 | 9.0 | 17.0 | 0.00 | 0.08 | 0.00 | 81 | 1009.3 |
| 20260904062404 | 78 | 263 | 10.0 | 20.0 | 0.00 | 0.09 | 0.00 | 81 | 1009.6 |
| 20260904061904 | 78 | 279 | 8.0 | 15.0 | 0.00 | 0.10 | 0.00 | 81 | 1009.5 |
| 20260904061405 | 77 | 228 | 0.0 | 3.0 | 0.00 | 0.10 | 0.00 | 81 | 1009.5 |
| 20260904060904 | 77 | 223 | 1.0 | 3.0 | 0.00 | 0.10 | 0.00 | 81 | 1009.4 |
| 20260904055904 | 77 | 254 | 0.0 | 2.0 | 0.00 | 0.10 | 0.00 | 81 | 1009.4 |
| 20260904054904 | 77 | 202 | 0.0 | 0.0 | 0.00 | 0.11 | 0.00 | 82 | 1009.4 |
| 20260904054404 | 77 | 203 | 0.0 | 0.0 | 0.00 | 0.11 | 0.00 | 81 | 1009.6 |
| 20260904053906 | 77 | 203 | 0.0 | 0.0 | 0.00 | 0.11 | 0.00 | 81 | 1009.7 |
| 20260904053404 | 77 | 202 | 0.0 | 0.0 | 0.00 | 0.12 | 0.00 | 80 | 1009.8 |
| 20260904052404 | 78 | 202 | 0.0 | 0.0 | 0.00 | 0.13 | 0.00 | 79 | 1009.8 |
| 20260904051904 | 78 | 202 | 0.0 | 0.0 | 0.00 | 0.14 | 0.00 | 79 | 1009.7 |
| 20260904050906 | 78 | 201 | 0.0 | 3.0 | 0.00 | 0.14 | 0.00 | 79 | 1009.5 |
| 20260904050404 | 78 | 199 | 0.0 | 2.0 | 0.00 | 0.15 | 0.00 | 78 | 1009.5 |
| 20260904045904 | 79 | 199 | 1.0 | 3.0 | 0.00 | 0.15 | 0.00 | 78 | 1009.5 |
| 20260904045404 | 79 | 200 | 1.0 | 3.0 | 0.00 | 0.16 | 0.00 | 78 | 1009.6 |
| 20260904044405 | 79 | 213 | 0.0 | 0.0 | 0.00 | 0.18 | 0.00 | 79 | 1009.8 |
| 20260904043404 | 79 | 226 | 0.0 | 2.0 | 0.00 | 0.19 | 0.00 | 78 | 1009.9 |
| 20260904042904 | 79 | 232 | 0.0 | 2.0 | 0.00 | 0.19 | 0.00 | 78 | 1010.0 |
| 20260904040904 | 79 | 253 | 0.0 | 0.0 | 0.00 | 0.19 | 0.00 | 78 | 1010.3 |
| 20260904040405 | 79 | 252 | 0.0 | 0.0 | 0.00 | 0.19 | 0.00 | 78 | 1010.3 |
| 20260904035904 | 79 | 253 | 0.0 | 0.0 | 0.00 | 0.19 | 0.19 | 78 | 1010.4 |
| 20260904035406 | 79 | 253 | 0.0 | 0.0 | 0.00 | 0.19 | 0.19 | 78 | 1010.3 |
| 20260904034904 | 79 | 254 | 0.0 | 0.0 | 0.00 | 0.19 | 0.19 | 77 | 1010.2 |
| 20260904034405 | 79 | 254 | 0.0 | 2.0 | 0.00 | 0.19 | 0.19 | 77 | 1010.2 |
| 20260904033405 | 79 | 237 | 0.0 | 2.0 | 0.00 | 0.19 | 0.19 | 77 | 1010.1 |
| 20260904032905 | 79 | 239 | 0.0 | 2.0 | 0.00 | 0.19 | 0.19 | 77 | 1010.2 |